STARLINK-1544 (46031 NORAD) Tracking and Keplerian Element Data

This shows tracking and keplerian element data for the satellite.

Feedback or suggestion? Click here.




ElementValue
Catalog46031
NameSTARLINK-1544
Epoch Orbit1829
Epoch Day332.74205465
Epoch Year2020
RAAN141.5101
Inclination53.0005
Eccentricity0.000215
Argument of Perigee86.9782
Mean Anonmoly273.1452
Mean Motion15.05590823
Decay Rate7.19E-06
L11 46031U 20055E 20332.74205465 .00000719 00000-0 68530-4 0 9992
L22 46031 53.0005 141.5101 0002150 86.9782 273.1452 15.05590823 18292

Live tracking and technical data element details for STARLINK-1544 (NORAD 46031). STARLINK-1544 can be tracked NOW for your location showing map with azimuth and elevation plus other details from your city location.

Track the satellite on the map from your city or location and see movement details for azimuth, elevation, latitude, longitude, range, height, and movement on the map or in text.







IsCatalogInMostPopularTable: catalog: 46031, numindb: 21
Update: records affected: 1



GetName: 46031 STARLINK-1544

Hit Count: updated at: Sun, 29 Nov 2020 11:09:19 GMT